H-2A R/B(2), 27518

Orbit data source: Space-Track

H-2A R/B(2), 27518 is space debris in HEO originally from a launch on Tue, 10 Sep 2002 UTC launched from the Tanegashima Space Center (TNSTA). Debris objects in space refer to the collection of defunct objects orbiting the Earth. Examples of debris include non-operational satellites, rocket bodies, and fragments generated from explosions, collisions, or faulty payload assembly.

Loading next visibility...
Identifier
27518, 2002-042D
Orbit
HEO
Country
Flag of JPJP / JPN
Related business
Manufacturer
MHI Tobishima
Mission
Spacecraft
Bus & Motor
H-2A STAGE 2, Unknown motor
Mass
4,000 kg wet, 4,000 kg dry
Launch date (UTC)
2002-09-10 (23 years ago)
Launch vehicle
Unknown
Launch site
Tanegashima Space Center (TNSTA)
Object type
Payload
Rocket body
Debris
Shape & HBR
Cyl, 4.6 m
Radar Cross Section
35.186 m², Large (>1 m²)

Expand to show TLE details & history
Last TLE update: 1 day ago

TLE from 1 day ago
0 H-2A R/B(2)
1 27518U 02042D   25306.10959112 -.00000005  00000-0  26126-3 0  9991
2 27518  28.8358 291.6650 7131652 155.7899 268.9342  2.37666646199972
Epoch: 2025-11-02T02:37Z
TLE epoch observation values (Epoch: 2025-11-02T02:37:48.672Z)
Latitude
-0.00005°
Longitude
-149.4319°
Altitude
26,927.384 km
Speed
2.67 km/s
True Right ascension
19h 26m 36s
True Declination
0° 00' 00"
Sunlit
Object was in daylight at epoch
Visualization orbit readout
Latitude
Unknown
Longitude
Unknown
Altitude
Unknown
Speed
Unknown
Apparent Right ascension
Unknown
Apparent Declination
Unknown
Sunlit
N/A
Visualization observer readout
Local Sidereal Time
03:31:01
Azimuth
Unknown
Elevation
Unknown
Doppler factor
Unknown
Orbital elements
Apogee altitude
34,261.84 km
Perigee altitude
426.204 km
Semi-major axis
23,722.159 km
Eccentricity
0.71317
Inclination
28.8358°
RAAN
291.665°
Arg. of periapsis
155.7899°
True anomaly
204.21303°
Mean anomaly
268.9342°
Eccentric anomaly
235.32865°
Mean motion
0.59403 °/min
Orbital period
606.03 mins
BSTAR
0.00026126
Loading maneuver chart data...
Computing Atmospheric mass density...
Loading historical data...
Loading historical data...
Loading historical data...
Loading historical data...
Loading historical data...
Loading historical data...
Loading historical data...

Documentation

Showing up to 5 results
|